Weather History for Ortonville, MN

Change the Weather History Date:

Wednesday, February 13, 2013

  Actual Average (KAQP) Record (KAQP)
Temperature  
Mean Temperature 27 °F -  
Max Temperature 35 °F 24 °F 42 °F (2011)
Min Temperature 19 °F 8 °F -7 °F (2007)
Degree Days  
Heating Degree Days 38    
Moisture  
Dew Point 23 °F    
Average Humidity 80    
Maximum Humidity 93    
Minimum Humidity 64    
Precipitation  
Precipitation 0.02 in - - ()
Sea Level Pressure  
Sea Level Pressure 29.66 in    
Wind  
Wind Speed 5 mph (West)    
Max Wind Speed 16 mph    
Max Gust Speed 25 mph    
Visibility 8 miles    
Events Rain , Snow    
Averages and records for this station are not official NWS values.
T = Trace of Precipitation, MM = Missing Value Source: NWS Daily Summary

Daily Weather History Graph

Daily Weather History Graph

Search for Another Location

Airport:

Trip Planner

Search our weather history database for the weather conditions in past years. The results will help you decide how hot, cold, wet, or windy it might be!

Date:

Astronomy

Feb. 13, 2013 Rise Set
Actual Time 7:29 AM CST 5:50 PM CST
Civil Twilight 6:59 AM CST 6:21 PM CST
Nautical Twilight 6:24 AM CST 6:55 PM CST
Astronomical Twilight 5:50 AM CST 7:30 PM CST
Moon 8:46 AM CST (2/13) 10:09 PM CST (2/13)
Length of Visible Light 11h 22m
Length of Day
10h 21m
Waxing Crescent, 14% of the Moon is Illuminated
Feb 13
Waxing Crescent
Feb 17
First Quarter
Feb 25
Full
Mar 4
Last Quarter
Mar 11
New

Hourly Weather History & Observations

Time (CST) Temp. Windchill Dew Point Humidity Pressure Visibility Wind Dir Wind Speed Gust Speed Precip Events Conditions
12:14 AM 19.4 °F - 15.8 °F 86% 29.79 in 10.0 mi Calm Calm - N/A   Overcast
12:33 AM 19.4 °F 14.3 °F 17.6 °F 93% 29.79 in 10.0 mi WSW 3.5 mph - N/A   Overcast
12:54 AM 19.4 °F - 15.8 °F 86% 29.79 in 10.0 mi Calm Calm - N/A   Mostly Cloudy
1:14 AM 19.4 °F - 15.8 °F 86% 29.79 in 10.0 mi Calm Calm - N/A   Scattered Clouds
1:33 AM 19.4 °F 14.3 °F 17.6 °F 93% 29.79 in 10.0 mi WSW 3.5 mph - N/A   Clear
2:14 AM 21.2 °F 14.9 °F 17.6 °F 86% 29.77 in 10.0 mi WSW 4.6 mph - N/A   Overcast
2:33 AM 21.2 °F 14.9 °F 19.4 °F 93% 29.77 in 10.0 mi West 4.6 mph - N/A   Overcast
2:54 AM 24.8 °F - 19.4 °F 80% 29.77 in 10.0 mi Calm Calm - N/A   Overcast
3:13 AM 24.8 °F - 19.4 °F 80% 29.76 in 10.0 mi Calm Calm - N/A   Overcast
3:34 AM 24.8 °F - 19.4 °F 80% 29.76 in 10.0 mi Calm Calm - N/A   Overcast
3:53 AM 24.8 °F 19.1 °F 19.4 °F 80% 29.75 in 10.0 mi WSW 4.6 mph - N/A   Overcast
4:14 AM 26.6 °F 19.1 °F 21.2 °F 80% 29.75 in 10.0 mi SW 6.9 mph - N/A   Scattered Clouds
4:34 AM 26.6 °F 20.0 °F 21.2 °F 80% 29.74 in 10.0 mi SW 5.8 mph - N/A   Mostly Cloudy
4:54 AM 28.4 °F 22.2 °F 21.2 °F 74% 29.73 in 10.0 mi SSW 5.8 mph - N/A   Overcast
5:14 AM 28.4 °F 23.3 °F 21.2 °F 74% 29.72 in 10.0 mi SW 4.6 mph - N/A   Overcast
5:33 AM 28.4 °F 22.2 °F 21.2 °F 74% 29.72 in 10.0 mi WSW 5.8 mph - N/A   Overcast
5:54 AM 28.4 °F 24.6 °F 21.2 °F 74% 29.72 in 10.0 mi WSW 3.5 mph - N/A   Scattered Clouds
6:14 AM 28.4 °F 21.2 °F 21.2 °F 74% 29.71 in 10.0 mi WSW 6.9 mph - N/A   Scattered Clouds
6:33 AM 26.6 °F 20.0 °F 21.2 °F 80% 29.70 in 10.0 mi WSW 5.8 mph - N/A   Clear
6:54 AM 26.6 °F 21.2 °F 19.4 °F 74% 29.69 in 10.0 mi SW 4.6 mph - N/A   Clear
7:14 AM 24.8 °F 19.1 °F 19.4 °F 80% 29.69 in 10.0 mi West 4.6 mph - N/A   Clear
7:33 AM 24.8 °F 17.9 °F 19.4 °F 80% 29.69 in 10.0 mi West 5.8 mph - N/A   Clear
7:54 AM 26.6 °F 18.2 °F 19.4 °F 74% 29.69 in 10.0 mi West 8.1 mph - N/A   Clear
8:13 AM 26.6 °F 18.2 °F 19.4 °F 74% 29.69 in 10.0 mi West 8.1 mph - N/A   Clear
8:34 AM 26.6 °F 20.0 °F 19.4 °F 74% 29.68 in 10.0 mi West 5.8 mph - N/A   Clear
8:54 AM 26.6 °F 20.0 °F 19.4 °F 74% 29.68 in 10.0 mi West 5.8 mph - N/A   Clear
9:14 AM 28.4 °F 22.2 °F 21.2 °F 74% 29.68 in 10.0 mi West 5.8 mph - N/A   Mostly Cloudy
9:34 AM 28.4 °F - 21.2 °F 74% 29.67 in 10.0 mi Calm Calm - N/A   Overcast
9:54 AM 28.4 °F - 21.2 °F 74% 29.66 in 10.0 mi Calm Calm - N/A   Overcast
10:14 AM 30.2 °F - 21.2 °F 69% 29.66 in 10.0 mi Calm Calm - N/A   Overcast
10:34 AM 30.2 °F - 21.2 °F 69% 29.67 in 10.0 mi Calm Calm - N/A   Mostly Cloudy
10:54 AM 32.0 °F - 21.2 °F 64% 29.67 in 10.0 mi Calm Calm - N/A   Scattered Clouds
11:14 AM 33.8 °F 28.6 °F 23.0 °F 65% 29.66 in 10.0 mi West 5.8 mph - N/A   Clear
11:33 AM 35.6 °F 30.7 °F 24.8 °F 65% 29.66 in 10.0 mi West 5.8 mph - N/A   Clear
11:54 AM 35.6 °F 32.8 °F 24.8 °F 65% 29.65 in 10.0 mi West 3.5 mph - N/A   Scattered Clouds
12:13 PM 35.6 °F 32.8 °F 24.8 °F 65% 29.64 in 10.0 mi WSW 3.5 mph - N/A   Scattered Clouds
12:34 PM 35.6 °F 32.8 °F 24.8 °F 65% 29.63 in 10.0 mi West 3.5 mph - N/A   Scattered Clouds
12:54 PM 35.6 °F 32.8 °F 24.8 °F 65% 29.62 in 10.0 mi SW 3.5 mph - N/A   Mostly Cloudy
1:13 PM 35.6 °F 32.8 °F 24.8 °F 65% 29.61 in 10.0 mi South 3.5 mph - N/A   Overcast
1:34 PM 33.8 °F 30.8 °F 24.8 °F 70% 29.59 in 7.0 mi SE 3.5 mph - N/A Rain Light Rain
1:54 PM 33.8 °F 28.6 °F 26.6 °F 75% 29.58 in 10.0 mi SE 5.8 mph - N/A Rain Light Rain
2:13 PM 33.8 °F 29.6 °F 26.6 °F 75% 29.58 in 4.0 mi SSE 4.6 mph - N/A Snow Light Snow
2:34 PM 33.8 °F 29.6 °F 26.6 °F 75% 29.57 in 4.0 mi SSE 4.6 mph - N/A Rain Rain
2:54 PM 32.0 °F 26.4 °F 26.6 °F 80% 29.56 in 10.0 mi SSE 5.8 mph - N/A Snow Light Snow
3:14 PM 32.0 °F 25.6 °F 26.6 °F 80% 29.57 in 10.0 mi South 6.9 mph - N/A Snow Light Snow
3:34 PM 32.0 °F 26.4 °F 28.4 °F 87% 29.57 in 1.2 mi South 5.8 mph - N/A Snow Snow
3:54 PM 32.0 °F 28.7 °F 28.4 °F 87% 29.57 in 1.2 mi South 3.5 mph - N/A   Overcast
4:14 PM 32.0 °F 28.7 °F 28.4 °F 87% 29.56 in 1.0 mi SSW 3.5 mph - 0.01 in Snow Light Snow
4:34 PM 32.0 °F - 30.2 °F 93% 29.56 in 1.8 mi Calm Calm - 0.02 in Snow Light Snow
4:54 PM 33.8 °F - 30.2 °F 87% 29.56 in 5.0 mi Calm Calm - 0.02 in Rain Light Rain
5:14 PM 33.8 °F - 30.2 °F 87% 29.56 in 10.0 mi Calm Calm - N/A   Overcast
5:34 PM 33.8 °F 27.7 °F 30.2 °F 87% 29.55 in 10.0 mi WNW 6.9 mph - N/A   Overcast
5:53 PM 33.8 °F 27.0 °F 30.2 °F 87% 29.55 in 10.0 mi WNW 8.1 mph - N/A   Overcast
6:14 PM 33.8 °F 28.6 °F 30.2 °F 87% 29.56 in 10.0 mi NW 5.8 mph - N/A   Overcast
6:34 PM 33.8 °F 27.0 °F 30.2 °F 87% 29.56 in 10.0 mi NW 8.1 mph - N/A   Overcast
6:53 PM 33.8 °F 25.3 °F 28.4 °F 81% 29.57 in 10.0 mi NNW 11.5 mph - N/A   Overcast
7:14 PM 33.8 °F 25.8 °F 28.4 °F 81% 29.58 in 10.0 mi NW 10.4 mph - N/A   Overcast
7:34 PM 32.0 °F 21.6 °F 28.4 °F 87% 29.59 in 10.0 mi NW 15.0 mph 20.7 mph N/A   Overcast
7:54 PM 30.2 °F 19.3 °F 28.4 °F 93% 29.60 in 10.0 mi NNW 15.0 mph 25.3 mph N/A   Overcast
8:14 PM 30.2 °F 19.3 °F 26.6 °F 86% 29.61 in 7.0 mi NNW 15.0 mph 23.0 mph N/A   Overcast
8:34 PM 28.4 °F 18.0 °F 24.8 °F 86% 29.63 in 10.0 mi NNW 12.7 mph 19.6 mph N/A   Overcast
8:53 PM 28.4 °F 16.6 °F 24.8 °F 86% 29.64 in 5.0 mi NNW 16.1 mph - N/A Snow Light Snow
9:14 PM 28.4 °F 17.5 °F 24.8 °F 86% 29.65 in 3.0 mi NNW 13.8 mph - N/A Snow Light Snow
9:34 PM 28.4 °F 18.5 °F 24.8 °F 86% 29.66 in 2.0 mi NW 11.5 mph - N/A Snow Light Snow
9:54 PM 28.4 °F 17.0 °F 24.8 °F 86% 29.67 in 3.0 mi NNW 15.0 mph 19.6 mph N/A Snow Light Snow
10:13 PM 28.4 °F 17.5 °F 24.8 °F 86% 29.68 in 4.0 mi NW 13.8 mph 19.6 mph N/A Snow Light Snow
10:33 PM 26.6 °F 15.2 °F 24.8 °F 93% 29.69 in 2.5 mi NNW 13.8 mph 19.6 mph N/A Snow Light Snow
10:54 PM 26.6 °F 15.2 °F 24.8 °F 93% 29.70 in 7.0 mi NW 13.8 mph 19.6 mph N/A Snow Light Snow
11:14 PM 26.6 °F 14.3 °F 24.8 °F 93% 29.71 in 5.0 mi NW 16.1 mph - N/A Snow Light Snow
11:33 PM 26.6 °F 15.2 °F 24.8 °F 93% 29.71 in 7.0 mi NW 13.8 mph 19.6 mph N/A   Overcast
11:54 PM 26.6 °F 15.2 °F 23.0 °F 86% 29.73 in 7.0 mi NW 13.8 mph 19.6 mph N/A   Overcast